Regional Weather Roundup
Issued by NWS

Home | Current Version | Previous Version | Graphics & Text | Print | Product List | Glossary On
Versions: 1 2 3 4 5 6 7 8 9 10 11 12 13 14 15 16 17 18 19 20 21 22 23 24 25 26 27 28 29 30 31 32 33 34 35 36 37 38 39 40 41 42 43 44 45 46 47 48 49 50
000
ASUS43 KTOP 282359
RWRKS

WEATHER ROUNDUP FOR KANSAS
NATIONAL WEATHER SERVICE GOODLAND KS
700 PM CDT FRI APR 28 2017

NOTE:  "FAIR" INDICATES FEW OR NO CLOUDS BELOW 12,000 FEET WITH NO
SIGNIFICANT WEATHER AND/OR OBSTRUCTIONS TO VISIBILITY.

KSZ001>006-013>018-027>032-041>047-290100-
NORTHWEST KANSAS

CITY           SKY/WX    TMP DP  RH WIND       PRES   REMARKS
GOODLAND       CLOUDY    36  35  96 NE17      29.88R WCI  26
6HR MIN TEMP:  36; 6HR MAX TEMP:  53;

HAYS           CLOUDY    45  41  86 N20       29.85R
HILL CITY      CLOUDY    41  38  89 NE15      29.90R
6HR MIN TEMP:  41; 6HR MAX TEMP:  58;

RUSSELL        CLOUDY    46  41  82 N17G23    29.84R
6HR MIN TEMP:  46; 6HR MAX TEMP:  66;

$$

KSZ061>065-074>080-084>089-290100-
SOUTHWEST KANSAS

CITY           SKY/WX    TMP DP  RH WIND       PRES   REMARKS
DODGE CITY     LGT RAIN  53  47  79 N15       29.80R
6HR MIN TEMP:  53; 6HR MAX TEMP:  68; 6HR PCP: TRACE;

ELKHART          N/A     44  40  86 MISG        N/A
GARDEN CITY    RAIN      47  45  93 SW5       29.83R FOG
6HR MIN TEMP:  47; 6HR MAX TEMP:  65; 6HR PCP:  0.30;

LIBERAL        LGT RAIN  48  46  93 N17       29.76S
$$

KSZ066>073-081>083-090>101-290100-
SOUTHEAST KANSAS

CITY           SKY/WX    TMP DP  RH WIND       PRES   REMARKS
CHANUTE        SUNNY     68  56  65 SE5       29.73R
6HR MIN TEMP:  62; 6HR MAX TEMP:  71;

COFFEYVILLE    CLOUDY    69  59  70 N5        29.72R
6HR MIN TEMP:  65; 6HR MAX TEMP:  71;

HUTCHINSON     MOSUNNY   64  51  62 N10G20    29.76R
6HR MIN TEMP:  64; 6HR MAX TEMP:  72;

MEDICINE LODGE   N/A     68  41  37 NE10      29.71R
NEWTON         PTSUNNY   65  50  58 N10       29.76R
PARSONS        CLOUDY    69  58  67 CALM      29.73R
6HR MIN TEMP:  64; 6HR MAX TEMP:  72;

WICHITA INTL   MOSUNNY   69  46  43 N10       29.72R
6HR MIN TEMP:  68; 6HR MAX TEMP:  75;

WICHITA JABRA  MOSUNNY   68  49  50 N12       29.72R
6HR MIN TEMP:  67; 6HR MAX TEMP:  75;

WINFIELD       MOSUNNY   72  54  53 E8        29.71R
6HR MIN TEMP:  69; 6HR MAX TEMP:  76;

$$

KSZ007>012-019>026-033>040-048>060-102>105-290100-
NORTHEAST KANSAS

CITY           SKY/WX    TMP DP  RH WIND       PRES   REMARKS
CONCORDIA      CLOUDY    42  40  92 N16G24    29.87R
6HR MIN TEMP:  42; 6HR MAX TEMP:  49;

EMPORIA        SUNNY     62  57  83 N13       29.75R
6HR MIN TEMP:  62; 6HR MAX TEMP:  72;

LAWRENCE       CLOUDY    54  53  97 N13       29.79R
6HR MIN TEMP:  54; 6HR MAX TEMP:  68;

MANHATTAN      CLOUDY    49  45  86 N10G21    29.82R
6HR MIN TEMP:  49; 6HR MAX TEMP:  64;

OLATHE IND     CLOUDY    64  57  78 E8        29.76R
6HR MIN TEMP:  58; 6HR MAX TEMP:  66;

OLATHE EXE     CLOUDY    63  58  83 E5        29.76R
6HR MIN TEMP:  57; 6HR MAX TEMP:  65;

SALINA         CLOUDY    52  45  77 N22       29.83R
6HR MIN TEMP:  51; 6HR MAX TEMP:  72; 6HR PCP: TRACE;

TOPEKA BILLARD CLOUDY    50  49  96 N9        29.81R
6HR MIN TEMP:  50; 6HR MAX TEMP:  69;

TOPEKA FORBES  CLOUDY    53  50  89 N14       29.79R
6HR MIN TEMP:  53; 6HR MAX TEMP:  70;

$$




USA.gov is the U.S. government's official web portal to all federal, state and local government web resources and services.